📊 Raw Sensor Data
Showing records 41251 to 41275 of 84,979 total
| ID | Distance (ft) | Battery V | Battery A | Int Temp (°F) | Int Humid (%) | Ext Temp (°F) | Solar V | RSSI | SNR | Time Stamp |
|---|---|---|---|---|---|---|---|---|---|---|
| 43741 | 15.4 | 3.98 | 0 | 73 | 44 | 77 | 5.10 | -69 | 7 | 06/17/2025 09:15 AM |
| 43740 | 15.4 | 4.05 | 0 | 72 | 44 | 74 | 5.10 | -68 | 8 | 06/17/2025 09:00 AM |
| 43739 | 15.4 | 4.06 | 0 | 72 | 43 | 75 | 5.10 | -68 | 8 | 06/17/2025 08:45 AM |
| 43738 | 15.4 | 3.98 | 0 | 70 | 43 | 76 | 5.10 | -68 | 8 | 06/17/2025 08:30 AM |
| 43737 | 15.4 | 4.05 | 0 | 68 | 43 | 72 | 5.10 | -68 | 8 | 06/17/2025 08:15 AM |
| 43736 | 15.4 | 3.98 | 0 | 67 | 43 | 73 | 5.10 | -68 | 8 | 06/17/2025 08:00 AM |
| 43735 | 15.4 | 4.13 | 0 | 66 | 42 | 71 | 5.10 | -68 | 8 | 06/17/2025 07:45 AM |
| 43734 | 15.4 | 3.98 | 0 | 64 | 41 | 72 | 5.10 | -69 | 8 | 06/17/2025 07:30 AM |
| 43733 | 15.3 | 4.16 | 9 | 62 | 41 | 73 | 4.50 | -68 | 8 | 06/17/2025 07:15 AM |
| 43732 | 15.3 | 4.05 | 9 | 59 | 41 | 71 | 4.50 | -68 | 7 | 06/17/2025 07:00 AM |
| 43731 | 15.2 | 3.86 | 5 | 56 | 41 | 66 | 4.50 | -69 | 7 | 06/17/2025 06:45 AM |
| 43730 | 15.2 | 3.84 | 0 | 53 | 42 | 62 | 4.50 | -68 | 8 | 06/17/2025 06:30 AM |
| 43729 | 15.1 | 3.83 | 0 | 50 | 43 | 57 | 4.50 | -68 | 8 | 06/17/2025 06:15 AM |
| 43728 | 15.1 | 3.95 | -6 | 49 | 43 | 53 | 4.50 | -68 | 8 | 06/17/2025 06:00 AM |
| 43727 | 15.1 | 3.79 | -10 | 48 | 43 | 51 | 2.10 | -68 | 8 | 06/17/2025 05:45 AM |
| 43726 | 15.1 | 3.81 | -5 | 48 | 43 | 50 | 1.10 | -68 | 8 | 06/17/2025 05:30 AM |
| 43725 | 15.1 | 3.97 | -5 | 48 | 44 | 51 | 0.00 | -68 | 8 | 06/17/2025 05:15 AM |
| 43724 | 15.1 | 3.81 | -5 | 49 | 43 | 51 | 0.10 | -68 | 8 | 06/17/2025 05:00 AM |
| 43723 | 15.1 | 3.80 | -5 | 50 | 43 | 51 | 0.00 | -68 | 8 | 06/17/2025 04:45 AM |
| 43722 | 15.1 | 3.96 | -5 | 50 | 43 | 52 | 0.00 | -68 | 8 | 06/17/2025 04:30 AM |
| 43721 | 15.1 | 3.81 | -5 | 51 | 43 | 52 | 0.00 | -68 | 8 | 06/17/2025 04:15 AM |
| 43720 | 15.1 | 3.81 | -5 | 51 | 43 | 53 | 0.00 | -67 | 8 | 06/17/2025 04:00 AM |
| 43719 | 15.1 | 3.97 | -5 | 51 | 43 | 53 | 0.00 | -68 | 8 | 06/17/2025 03:45 AM |
| 43718 | 15.1 | 3.83 | -5 | 51 | 43 | 52 | 0.10 | -68 | 8 | 06/17/2025 03:30 AM |
| 43717 | 15.1 | 3.82 | -5 | 52 | 43 | 53 | 0.10 | -68 | 8 | 06/17/2025 03:15 AM |